Retour au catalogue

COSMOS 2251 DEB

ActifVLEO
NORAD 34752·DEBRIS·🇷🇺 Russia

Lancé Jun 16, 1993 depuis Plesetsk Cosmodrome

Loading…

Prochains Passages (prochaines 24 heures)

TLE

FraisSource: Space-Track

Époque: Sep 14, 2026, 09:37 UTC

1 34752U 93036ZW  26257.40097197  .00007895  00000-0  52031-3 0  9994
2 34752  74.0107 156.1742 0046596 212.5768 147.2546 15.06742910939936

Suivez COSMOS 2251 DEB en temps réel avec AllMySat

Download on the App Store